CW5988 Weather Reports


time (UTC)temp
F
wind
direction
speed
knots
gust
knots
rain 1hr
in
rain 24hr
in
rain mn
in
humidity
%
barometer
mb
20260506025932 58 237 5.2 10.4 0.00 0.10 0.06 79 1016.3
20260506025418 58 222 5.2 10.4 0.00 0.10 0.06 79 1016.2
20260506024925 58 292 5.2 9.6 0.00 0.10 0.06 78 1016.2
20260506024429 58 239 5.2 9.6 0.00 0.10 0.06 78 1016.2
20260506023937 58 252 5.2 10.4 0.00 0.10 0.06 79 1016.2
20260506023422 58 258 7.0 13.9 0.00 0.10 0.06 78 1016.2
20260506022929 58 251 7.0 13.9 0.00 0.10 0.06 78 1016.2
20260506022437 58 274 7.8 12.2 0.00 0.10 0.06 78 1016.1
20260506021925 58 249 7.0 12.2 0.00 0.10 0.06 77 1016.0
20260506021432 58 257 7.0 17.4 0.00 0.10 0.06 77 1016.0
20260506020940 58 235 9.6 17.4 0.00 0.10 0.06 77 1015.9
20260506020421 59 260 7.0 15.6 0.00 0.10 0.06 77 1015.9
20260506015928 58 274 8.7 15.6 0.00 0.10 0.06 77 1015.9
20260506015434 59 251 8.7 14.8 0.00 0.10 0.06 76 1015.9
20260506014921 59 259 9.6 14.8 0.00 0.10 0.06 76 1015.9
20260506014429 59 281 7.8 14.8 0.00 0.10 0.06 75 1016.0
20260506013935 59 270 7.0 15.6 0.00 0.10 0.06 75 1016.0
20260506013419 60 251 7.8 13.9 0.00 0.10 0.06 74 1016.0
20260506012922 60 276 5.2 13.9 0.00 0.10 0.06 74 1016.1
20260506012431 60 275 6.1 13.0 0.00 0.10 0.06 74 1016.1
20260506011937 60 177 7.0 13.0 0.00 0.10 0.06 73 1016.1
20260506011423 60 277 7.8 12.2 0.00 0.10 0.06 73 1016.0
20260506010928 61 287 8.7 15.6 0.00 0.10 0.06 74 1016.0
20260506010436 60 263 7.8 15.6 0.00 0.10 0.06 73 1015.9
20260506005920 61 251 8.7 15.6 0.00 0.10 0.06 72 1016.0
20260506005428 61 27 7.8 15.6 0.00 0.10 0.06 71 1015.9
20260506004931 61 225 7.0 13.0 0.00 0.10 0.06 71 1015.9
20260506004434 61 285 5.2 13.0 0.00 0.10 0.06 73 1015.7
20260506003919 61 293 7.0 13.9 0.00 0.10 0.06 73 1015.7
20260506003426 61 213 8.7 17.4 0.00 0.10 0.06 72 1015.6
20260506002933 61 286 7.8 17.4 0.00 0.10 0.06 73 1015.6
20260506002438 61 277 9.6 17.4 0.00 0.10 0.06 72 1015.5
20260506001924 61 278 8.7 15.6 0.00 0.10 0.06 72 1015.5
20260506001425 61 261 8.7 15.6 0.00 0.10 0.06 72 1015.4
20260506000933 61 256 7.0 15.6 0.00 0.10 0.06 73 1015.4
20260506000420 61 277 7.8 15.6 0.00 0.10 0.06 74 1015.3
20260505235925 60 228 8.7 13.9 0.00 0.10 0.06 74 1015.3
20260505235432 60 270 7.8 14.8 0.00 0.10 0.06 75 1015.4
20260505234922 60 268 9.6 16.5 0.00 0.10 0.06 75 1015.4
20260505234427 60 268 9.6 15.6 0.00 0.10 0.06 74 1015.3
20260505233930 60 268 9.6 17.4 0.00 0.10 0.06 74 1015.4
20260505233437 60 277 8.7 17.4 0.00 0.10 0.06 74 1015.5
20260505232954 60 263 9.6 16.5 0.00 0.10 0.06 73 1015.5
20260505232421 61 257 10.4 17.4 0.00 0.10 0.06 74 1015.5
20260505231928 61 283 8.7 18.2 0.00 0.10 0.06 73 1015.4
20260505231435 61 314 7.8 17.4 0.00 0.10 0.06 73 1015.4
20260505230941 61 256 10.4 16.5 0.00 0.10 0.06 73 1015.3
20260505230443 61 242 9.6 18.2 0.00 0.10 0.06 73 1015.2
20260505225928 62 237 7.0 18.2 0.00 0.10 0.06 73 1015.3
20260505225433 61 268 10.4 19.1 0.00 0.10 0.06 71 1015.2
20260505224918 62 263 8.7 19.1 0.00 0.10 0.06 72 1015.4
20260505224423 62 252 11.3 19.1 0.00 0.10 0.06 72 1015.4
20260505223926 62 269 11.3 19.1 0.00 0.10 0.06 73 1015.4
20260505223433 61 282 11.3 18.2 0.00 0.10 0.06 73 1015.6
20260505222936 61 261 9.6 16.5 0.00 0.10 0.06 74 1015.4
20260505222441 61 287 7.8 17.4 0.00 0.10 0.06 74 1015.5
20260505221926 60 249 7.8 17.4 0.00 0.10 0.06 75 1015.6
20260505221433 60 250 9.6 15.6 0.00 0.10 0.06 75 1015.7
20260505220942 61 251 8.7 14.8 0.00 0.10 0.06 75 1015.8
20260505220447 61 247 10.4 14.8 0.00 0.10 0.06 74 1015.8
20260505215928 61 252 6.1 13.0 0.00 0.10 0.06 75 1015.9
20260505215432 60 259 8.7 13.0 0.00 0.10 0.06 76 1015.8
20260505214935 60 275 7.0 14.8 0.00 0.10 0.06 75 1015.9
20260505214423 61 263 7.8 16.5 0.00 0.10 0.06 75 1016.0
20260505213930 60 287 7.8 16.5 0.00 0.10 0.06 74 1016.1
20260505213436 60 295 7.0 13.9 0.00 0.10 0.06 74 1016.1
20260505212918 60 268 7.0 13.0 0.00 0.10 0.06 74 1016.1
20260505212421 60 252 8.7 14.8 0.00 0.10 0.06 74 1016.1
20260505211928 61 243 8.7 13.9 0.00 0.10 0.06 74 1016.1
20260505211435 61 263 8.7 14.8 0.00 0.10 0.06 73 1016.1
20260505210921 61 256 7.0 13.0 0.00 0.10 0.06 73 1016.1
20260505210428 61 282 8.7 12.2 0.00 0.10 0.06 73 1016.1
20260505205934 61 219 7.0 13.0 0.00 0.10 0.06 73 1016.1
20260505205441 61 272 6.1 16.5 0.00 0.10 0.06 73 1016.0
20260505204922 60 282 8.7 15.6 0.00 0.10 0.06 73 1016.1
20260505204426 60 347 7.0 16.5 0.00 0.10 0.06 74 1016.1
20260505203932 60 259 10.4 17.4 0.00 0.10 0.06 73 1016.1
20260505203446 61 288 7.8 13.0 0.00 0.10 0.06 72 1016.1
20260505203001 61 268 8.7 13.0 0.00 0.10 0.06 72 1016.1
20260505202458 61 284 7.8 16.5 0.00 0.10 0.06 73 1016.1
20260505201923 61 284 9.6 18.2 0.00 0.10 0.06 72 1016.1
20260505201421 61 275 10.4 14.8 0.00 0.10 0.06 72 1016.1
20260505200927 61 249 9.6 15.6 0.00 0.10 0.06 71 1016.1
20260505200431 61 203 7.0 17.4 0.00 0.10 0.06 73 1016.0
20260505195919 61 268 9.6 17.4 0.00 0.10 0.06 73 1015.9
20260505195423 60 277 9.6 19.1 0.00 0.10 0.06 73 1016.2
20260505194928 60 265 12.2 19.1 0.00 0.10 0.06 73 1016.2
20260505194435 61 308 7.8 16.5 0.00 0.10 0.06 74 1016.1
20260505193934 60 239 9.6 16.5 0.00 0.10 0.06 74 1016.2
20260505193422 60 294 10.4 15.6 0.00 0.10 0.06 74 1016.2
20260505192929 60 258 8.7 16.5 0.00 0.10 0.06 74 1016.2
20260505192436 60 259 7.8 16.5 0.00 0.10 0.06 74 1016.2
20260505191926 60 289 7.8 13.9 0.00 0.10 0.06 74 1016.2
20260505191431 59 221 10.4 13.9 0.00 0.10 0.06 75 1016.2
20260505190937 59 261 8.7 13.9 0.00 0.10 0.06 74 1016.1
20260505190440 59 265 7.8 12.2 0.00 0.10 0.06 76 1016.0
20260505185917 59 235 6.1 14.8 0.00 0.10 0.06 76 1015.9
20260505185423 59 295 7.0 14.8 0.00 0.10 0.06 77 1015.9
20260505184931 59 300 7.8 15.6 0.00 0.10 0.06 77 1015.9
20260505184436 59 315 7.8 15.6 0.00 0.10 0.06 77 1015.9
20260505183923 59 282 6.1 14.8 0.00 0.10 0.06 77 1015.9
20260505183430 59 261 7.0 14.8 0.00 0.10 0.06 78 1015.9
20260505182936 59 283 6.1 16.5 0.00 0.10 0.06 78 1016.0
20260505182419 59 281 10.4 16.5 0.00 0.10 0.06 77 1016.1
20260505181953 59 263 7.0 13.9 0.00 0.10 0.06 77 1016.2
20260505181435 59 289 7.0 12.2 0.00 0.10 0.06 79 1016.1
20260505180952 59 265 5.2 11.3 0.00 0.10 0.06 80 1016.2
20260505180419 58 280 5.2 13.0 0.00 0.10 0.06 80 1016.0
20260505175943 58 314 4.3 13.0 0.00 0.10 0.06 81 1015.8
20260505175423 58 270 8.7 14.8 0.00 0.10 0.06 81 1015.8
20260505174930 57 275 8.7 14.8 0.00 0.10 0.06 81 1015.7
20260505174416 57 241 6.1 13.9 0.00 0.10 0.06 82 1015.7
20260505173925 57 290 7.8 14.8 0.00 0.10 0.06 83 1015.6
20260505173431 57 261 7.8 14.8 0.00 0.10 0.06 82 1015.7
20260505172919 57 270 9.6 12.2 0.00 0.10 0.06 83 1015.6
20260505172424 57 285 8.7 13.0 0.00 0.10 0.06 83 1015.5
20260505171932 57 274 7.8 12.2 0.00 0.10 0.06 83 1015.6
20260505171434 57 283 5.2 13.0 0.00 0.10 0.06 84 1015.6
20260505170941 57 323 7.8 13.0 0.00 0.10 0.06 84 1015.6
20260505170426 56 283 7.8 13.0 0.00 0.10 0.06 84 1015.5
20260505165933 56 249 8.7 13.0 0.00 0.10 0.06 85 1015.6
20260505165419 57 295 5.2 11.3 0.00 0.10 0.06 85 1015.6
20260505164944 56 280 7.0 11.3 0.00 0.10 0.06 85 1015.6
20260505164422 56 313 7.8 11.3 0.00 0.10 0.06 85 1015.6
20260505163931 56 270 5.2 13.9 0.00 0.10 0.06 85 1015.5
20260505163434 56 293 8.7 13.9 0.00 0.10 0.06 85 1015.6
20260505162919 56 256 6.1 11.3 0.00 0.10 0.06 86 1015.7
20260505162448 56 299 7.0 11.3 0.00 0.10 0.06 86 1015.6
20260505161933 56 268 7.0 11.3 0.00 0.10 0.06 85 1015.6
20260505161420 56 273 6.1 8.7 0.00 0.10 0.06 86 1015.5
20260505160924 56 289 4.3 8.7 0.00 0.10 0.06 86 1015.4
20260505160428 56 202 4.3 9.6 0.00 0.10 0.06 86 1015.4
20260505152924 55 268 6.1 12.2 0.00 0.10 0.06 86 1015.1
20260505152432 55 301 4.3 13.9 0.00 0.10 0.06 86 1015.1
20260505151920 55 348 8.7 14.8 0.00 0.10 0.06 85 1015.1
20260505151427 55 243 7.8 14.8 0.00 0.10 0.06 85 1015.1
20260505150933 55 297 5.2 9.6 0.00 0.10 0.06 85 1015.1
20260505150419 55 285 3.5 7.8 0.00 0.10 0.06 85 1015.0
20260505140419 55 215 3.5 9.6 0.00 0.10 0.06 84 1014.7
20260505124928 54 237 5.2 9.6 0.00 0.10 0.06 83 1014.3
20260505124434 54 275 5.2 13.9 0.00 0.10 0.06 83 1014.3
20260505123917 54 263 8.7 13.9 0.00 0.10 0.06 83 1014.4
20260505123445 54 261 7.0 11.3 0.00 0.10 0.06 83 1014.4
20260505122930 54 229 6.1 12.2 0.00 0.10 0.06 83 1014.3
20260505122417 54 273 6.1 12.2 0.00 0.10 0.06 83 1014.4
20260505121944 54 265 7.0 12.2 0.00 0.10 0.06 83 1014.3
20260505121457 54 221 6.1 13.0 0.00 0.10 0.06 83 1014.3
20260505120923 54 244 7.0 13.0 0.00 0.10 0.06 83 1014.4
20260505120427 54 264 7.8 13.0 0.00 0.10 0.06 82 1014.2
20260505115923 54 238 5.2 9.6 0.00 0.10 0.06 83 1014.3
20260505115431 54 254 5.2 9.6 0.00 0.10 0.06 83 1014.3
20260505114918 54 242 4.3 9.6 0.00 0.10 0.06 83 1014.3
20260505114425 54 245 5.2 10.4 0.00 0.10 0.06 82 1014.4
20260505113932 54 258 4.3 10.4 0.00 0.10 0.06 82 1014.4
20260505113420 54 229 4.3 8.7 0.00 0.10 0.06 82 1014.3
20260505112922 54 271 5.2 7.8 0.00 0.10 0.06 82 1014.6
20260505112428 54 303 2.6 7.8 0.00 0.10 0.06 82 1014.6
20260505111933 54 299 2.6 8.7 0.00 0.10 0.06 82 1014.6
20260505111421 54 268 5.2 9.6 0.00 0.10 0.06 81 1014.5
20260505110927 54 249 5.2 9.6 0.00 0.10 0.06 81 1014.4
20260505110436 54 242 4.3 10.4 0.00 0.10 0.06 81 1014.4
20260505101944 54 249 6.1 10.4 0.01 0.10 0.06 84 1014.4
20260505101426 54 284 5.2 11.3 0.01 0.10 0.06 84 1014.5
20260505100934 54 256 6.1 11.3 0.01 0.10 0.06 85 1014.5
20260505100448 54 268 4.3 7.0 0.01 0.10 0.06 85 1014.7
20260505100003 54 261 4.3 7.8 0.01 0.10 0.06 84 1014.7
20260505095457 54 263 3.5 9.6 0.01 0.10 0.06 85 1014.6
20260505094923 54 313 5.2 10.4 0.01 0.10 0.06 85 1014.7
20260505094425 54 289 6.1 12.2 0.01 0.10 0.06 85 1014.7
20260505093933 54 278 6.1 12.2 0.01 0.10 0.06 85 1014.7
20260505093420 54 244 6.1 11.3 0.01 0.09 0.05 85 1014.8
20260505092927 54 277 7.0 13.0 0.01 0.09 0.05 85 1014.8
20260505092435 54 270 7.0 13.0 0.01 0.09 0.05 85 1014.8
20260505091941 54 254 6.1 11.3 0.01 0.09 0.05 85 1015.0
20260505091427 54 242 5.2 11.3 0.01 0.09 0.05 85 1015.1
20260505090931 54 302 7.0 11.3 0.02 0.09 0.05 85 1015.2
20260505090418 54 268 4.3 8.7 0.02 0.09 0.05 85 1015.1
20260505085926 54 242 4.3 8.7 0.03 0.09 0.05 85 1015.0
20260505085433 54 263 3.5 9.6 0.03 0.09 0.05 85 1015.2
20260505084948 54 256 5.2 9.6 0.04 0.09 0.05 85 1015.2
20260505084433 54 249 5.2 11.3 0.04 0.09 0.05 85 1015.1
20260505083942 54 184 4.3 9.6 0.04 0.09 0.05 85 1015.2
20260505083423 54 209 5.2 9.6 0.04 0.08 0.04 85 1015.2
20260505082932 54 247 5.2 11.3 0.04 0.08 0.04 85 1015.1
20260505082419 54 242 5.2 11.3 0.04 0.08 0.04 85 1015.1
20260505081955 54 247 4.3 9.6 0.04 0.08 0.04 85 1015.1
20260505081418 54 239 4.3 8.7 0.04 0.08 0.04 85 1015.1
20260505080925 54 265 5.2 8.7 0.03 0.07 0.03 85 1015.2
20260505080431 54 190 3.5 7.8 0.03 0.07 0.03 85 1015.4
20260505075931 54 222 4.3 7.8 0.02 0.06 0.02 85 1015.5
20260505075418 53 252 3.5 7.8 0.02 0.06 0.02 85 1015.5
20260505074926 53 268 3.5 7.8 0.01 0.05 0.01 85 1015.4
20260505074429 53 268 4.3 8.7 0.01 0.05 0.01 84 1015.3
20260505073935 53 217 3.5 8.7 0.01 0.05 0.01 84 1015.3
20260505073451 53 231 3.5 7.0 0.00 0.04 0.00 84 1015.4
20260505072938 53 254 4.3 7.0 0.00 0.04 0.00 84 1015.6
20260505072421 53 244 3.5 7.0 0.00 0.04 0.00 84 1015.7
20260505071930 53 275 3.5 7.0 0.00 0.04 0.00 84 1015.9
20260505071418 53 297 2.6 7.8 0.01 0.04 0.00 84 1015.8
20260505070946 53 278 3.5 7.8 0.01 0.04 0.00 84 1015.8
20260505070433 53 295 2.6 7.8 0.01 0.04 0.00 84 1015.6
20260505065922 53 251 5.2 7.8 0.01 0.04 0.04 84 1015.6
20260505065457 53 224 4.3 7.8 0.02 0.04 0.04 84 1015.6
20260505064923 53 254 3.5 7.0 0.02 0.04 0.04 84 1015.4
20260505064428 53 282 3.5 8.7 0.02 0.04 0.04 83 1015.3
20260505063918 53 268 4.3 13.0 0.02 0.04 0.04 83 1015.1
20260505063426 53 289 7.0 13.0 0.02 0.04 0.04 83 1015.0
20260505062933 53 264 7.8 12.2 0.02 0.04 0.04 83 1014.9
20260505062422 53 271 7.8 13.0 0.02 0.04 0.04 82 1014.8
20260505061922 53 265 8.7 13.0 0.01 0.03 0.03 81 1014.9
20260505061430 53 280 7.0 13.0 0.02 0.03 0.03 81 1014.9
20260505060917 53 280 6.1 13.0 0.02 0.03 0.03 80 1015.1
20260505060424 53 304 7.0 11.3 0.02 0.03 0.03 80 1015.2
20260505055926 53 258 4.3 12.2 0.02 0.03 0.03 80 1015.4
20260505055434 53 261 5.2 12.2 0.02 0.02 0.02 79 1015.4
20260505054940 53 283 7.0 12.2 0.02 0.02 0.02 80 1015.4
20260505054422 53 273 5.2 8.7 0.02 0.02 0.02 81 1015.4
20260505053924 54 278 5.2 8.7 0.02 0.02 0.02 81 1015.3
20260505053433 54 256 5.2 9.6 0.02 0.02 0.02 82 1015.2
20260505052919 54 244 5.2 9.6 0.02 0.02 0.02 82 1015.2
20260505052425 54 239 2.6 5.2 0.02 0.02 0.02 82 1015.2
20260505051933 54 213 2.6 5.2 0.02 0.02 0.02 82 1015.1
20260505051421 54 244 2.6 4.3 0.01 0.01 0.01 82 1015.2
20260505050927 54 247 2.6 8.7 0.01 0.01 0.01 81 1015.3
20260505050430 54 227 3.5 8.7 0.01 0.01 0.01 81 1015.5
20260505041429 55 299 4.3 11.3 0.00 0.00 0.00 76 1015.8
20260505040936 55 273 3.5 12.2 0.00 0.00 0.00 76 1015.5
20260505040450 55 289 4.3 13.0 0.00 0.00 0.00 75 1015.3
20260505035938 55 308 5.2 13.0 0.00 0.00 0.00 75 1015.2
20260505035452 55 263 7.0 13.0 0.00 0.00 0.00 75 1015.1
20260505034919 56 228 7.8 13.0 0.00 0.00 0.00 75 1014.9
20260505034427 56 293 5.2 13.0 0.00 0.00 0.00 75 1014.8
20260505033933 56 242 6.1 12.2 0.00 0.00 0.00 76 1014.7
20260505033421 56 273 4.3 12.2 0.00 0.00 0.00 76 1014.8
20260505032928 56 308 6.1 9.6 0.00 0.00 0.00 77 1014.8
20260505032439 56 243 4.3 11.3 0.00 0.00 0.00 77 1014.7
20260505031951 56 282 5.2 11.3 0.00 0.00 0.00 77 1014.7
20260505031436 56 225 4.3 11.3 0.00 0.00 0.00 78 1014.5
20260505030942 56 282 6.1 11.3 0.00 0.00 0.00 78 1014.5
20260505030427 56 263 5.2 8.7 0.00 0.00 0.00 79 1014.5